Regional Weather Roundup
Issued by NWS Raleigh/Durham, NC

Home | Current Version | Previous Version | Text Only | Print | Product List | Glossary On
Versions: 1 2 3 4 5 6 7 8 9 10 11 12 13 14 15 16 17 18 19 20 21 22 23 24 25 26 27 28
000
ASUS42 KRAH 230910
RWRRAH
NORTH CAROLINA WEATHER ROUNDUP
NATIONAL WEATHER SERVICE RALEIGH NC
500 AM EDT SAT JUL 23 2016

NOTE: "FAIR" INDICATES FEW OR NO CLOUDS BELOW 12,000 FEET WITH NO
SIGNIFICANT WEATHER AND/OR OBSTRUCTIONS TO VISIBILITY.

NCZ001-053-055-056-065-067-231000-
WESTERN NORTH CAROLINA

CITY           SKY/WX    TMP DP  RH WIND       PRES   REMARKS
ASHEVILLE      PTCLDY    65  63  93 CALM      30.11S
JEFFERSON      CLEAR     67  64  91 CALM      30.15F
HICKORY        CLEAR     72  69  90 W5        30.02F
RUTHERFORDTON    N/A     68  68 100 CALM      30.03F
MOUNT AIRY     CLEAR     71  69  93 CALM      30.04F
BOONE          CLEAR     63  63 100 CALM      30.16S FOG
$$

NCZ021-022-025-041-071-084-088-231000-
CENTRAL NORTH CAROLINA

CITY           SKY/WX    TMP DP  RH WIND       PRES   REMARKS
CHARLOTTE      MOCLDY    72  67  84 CALM      30.01S
GREENSBORO     PTCLDY    73  70  90 W8        30.00S
WINSTON-SALEM  CLEAR     74  68  81 SW3       30.02S
RALEIGH-DURHAM PTCLDY    73  70  90 SW3       29.98F
FORT BRAGG     PTCLDY    76  72  87 CALM      29.97S
FAYETTEVILLE   PTCLDY    76  71  85 S3        29.97F
BURLINGTON     CLEAR     71  68  90 CALM      29.99S
LAURINBURG     CLEAR     76  74  93 SW6       29.99F
$$

NCZ011-015-027-028-043-044-047-080-103-231000-
NORTHEASTERN NORTH CAROLINA

CITY           SKY/WX    TMP DP  RH WIND       PRES   REMARKS
ROCKY MT-WILSO CLEAR     73  72  96 CALM      29.98F
GREENVILLE     CLEAR     73  72  94 SW5       30.00F
WASHINGTON     CLEAR     73  70  89 S3        29.99F
ELIZABETH CITY CLEAR     75  71  87 SW9       29.96F
MANTEO         NOT AVBL
CAPE HATTERAS  CLEAR     80  73  79 W6        30.00F
$$

NCZ078-087-090-091-093-098-101-231000-
SOUTHEASTERN NORTH CAROLINA

CITY           SKY/WX    TMP DP  RH WIND       PRES   REMARKS
LUMBERTON      PTCLDY    76  73  91 SW6       29.98F
GOLDSBORO      PTCLDY    74  74 100 S3        29.97F
KENANSVILLE    PTCLDY    72  71  96 CALM      30.00S
NEW BERN       CLEAR     75  71  87 CALM      30.01F
CHERRY POINT   CLEAR     73  70  90 CALM      30.01F
BEAUFORT       CLEAR     80  72  76 SW5       30.00F
JACKSONVILLE   CLEAR     74  70  87 SW3       29.99F
WILMINGTON     PTCLDY    76  72  87 CALM      30.00F
$$





USA.gov is the U.S. government's official web portal to all federal, state and local government web resources and services.